Regional Weather Roundup
Issued by NWS

Home | Current Version | Previous Version | Graphics & Text | Print | Product List | Glossary On
Versions: 1 2 3 4 5 6 7 8 9 10 11 12 13 14 15 16 17 18 19 20 21 22 23 24 25 26 27 28 29 30 31 32 33 34 35 36 37 38 39 40 41 42 43 44 45 46 47 48 49 50
000
ASUS43 KFSD 210610
RWRSD

WEATHER ROUNDUP FOR SOUTH DAKOTA
NATIONAL WEATHER SERVICE SIOUX FALLS SD
1200 AM CST SUN JAN 21 2018

NOTE: "FAIR" INDICATES FEW OR NO CLOUDS BELOW 12,000 FEET WITH NO
SIGNIFICANT WEATHER AND/OR OBSTRUCTIONS TO VISIBILITY.


SDZ001>005-009-010-012>017-210700-
NORTHWEST AND NORTH CENTRAL SOUTH DAKOTA

CITY           SKY/WX    TMP DP  RH WIND       PRES   REMARKS
BUFFALO          N/A     29  21  72 W6        29.90R WCI  23
FAITH            N/A     32  27  81 W5        29.97S WCI  27
MOBRIDGE       CLOUDY    34  28  79 NW5       29.96R WCI  30
$$

SDZ012>016-024>037-041>051-057-063-072>074-210700-
SOUTHWEST AND SOUTH CENTRAL SOUTH DAKOTA

CITY           SKY/WX    TMP DP  RH WIND       PRES   REMARKS
RAPID CTY ARPT LGT SNOW  30  28  92 N8        29.98S FOG     WCI  22
PIERRE         LGT RAIN  36  32  85 CALM      29.99R
CUSTER         LGT SNOW  23  19  85 N5        29.87S FOG     WCI  17
ELLSWORTH AFB  LGT SNOW  30  30 100 NW7       29.97  FOG     WCI  23
PHILIP         LGT SNOW  32  32 100 N3        30.00S FOG
PINE RIDGE     LGT SNOW  31  31 100 NE3       29.96R VSB 3/4
SPEARFISH        N/A     28  27  93 S9        29.97S WCI  20
WINNER         CLOUDY    37  34  89 N9        29.95S
$$

SDZ004>011-016>023-039-040-210700-
NORTHEAST SOUTH DAKOTA

CITY           SKY/WX    TMP DP  RH WIND       PRES   REMARKS
ABERDEEN       CLOUDY    32  28  85 SW5       29.98R WCI  27
WATERTOWN      CLOUDY    33  30  88 N6        29.94R WCI  28
BROOKINGS      CLOUDY    36  30  79 MISG        N/A
SISSETON         N/A     36  28  73 CALM      29.96R
$$

SDZ017-020-022-023-036>040-048>070-210700-
SOUTHEAST SOUTH DAKOTA

CITY           SKY/WX    TMP DP  RH WIND       PRES   REMARKS
SIOUX FALLS    CLOUDY    33  30  88 N7        29.93F WCI  27
HURON          CLOUDY    35  33  92 CALM      29.96S
CHAMBERLAIN    CLOUDY    38  36  92 N7        29.96R
MITCHELL       CLOUDY    35  32  88 N3        29.97R
YANKTON        CLOUDY    30  28  92 CALM      29.92S
$$

ABBREVIATIONS USED IN REMARKS
   TC - TEMPERATURE IN CELSIUS
  WCI - WIND CHILL INDEX
   HX - HEAT INDEX
  VSB - VISIBILITY




USA.gov is the U.S. government's official web portal to all federal, state and local government web resources and services.